Regional Weather Roundup
Issued by NWS

Home | Current Version | Previous Version | Graphics & Text | Print | Product List | Glossary On
Versions: 1 2 3 4 5 6 7 8 9 10 11 12 13 14 15 16 17 18 19 20 21 22 23 24 25 26 27 28 29 30 31 32 33 34 35 36 37 38 39 40 41 42 43 44 45 46 47 48 49 50
000
ASUS43 KLOT 010106
RWRIL

ILLINOIS REGIONAL WEATHER ROUNDUP
NATIONAL WEATHER SERVICE CHICAGO/ROMEOVILLE IL
800 PM CDT THU JUL 31 2014

NOTE: "FAIR" INDICATES FEW OR NO CLOUDS BELOW 12,000 FEET WITH NO
SIGNIFICANT WEATHER AND/OR OBSTRUCTIONS TO VISIBILITY.

* THESE STATIONS ARE NOT UNDER NWS QUALITY CONTROL. THEY ALSO MAY NOT
  REPORT WEATHER SUCH AS PRECIPITATION OR FOG.

ILZ001-002-007-009-015-016-024-010200-
NORTHWEST ILLINOIS

CITY           SKY/WX    TMP DP  RH WIND       PRES   REMARKS
MOLINE         CLEAR     76  63  64 CALM      30.03R
STERLING*      CLEAR     73  61  64 CALM      30.03F
SAVANNA*       CLEAR     76  60  56 SW3       30.02S
$$

ILZ003-004-008-010-011-017-018-010200-
NORTH CENTRAL ILLINOIS

CITY           SKY/WX    TMP DP  RH WIND       PRES   REMARKS
ROCKFORD       CLEAR     74  57  55 SW5       30.04S
FREEPORT*      CLEAR     73  63  71 SW5       30.05S
ROCHELLE*      CLEAR     71  61  70 W5        30.04S
DE KALB*       CLEAR     72  58  61 W6        30.04S
PERU*          PTCLDY    75  64  67 W6        30.04F
$$

ILZ005-006-012>014-019>023-010200-
NORTHEAST ILLINOIS

CITY           SKY/WX    TMP DP  RH WIND       PRES   REMARKS
CHICAGO-OHARE  PTCLDY    78  56  46 W9        30.02R
CHICAGO-MIDWAY PTCLDY    80  58  46 W9        30.02S HX  80
AURORA         CLEAR     73  61  65 SW3       30.04R
LANSING*       PTCLDY    74  61  63 SW6       30.04R
JOLIET*        PTCLDY    76  61  59 SW3       30.04S
WAUKEGAN       CLEAR     75  56  51 VRB3      30.00S
DUPAGE AIRPORT CLEAR     75  60  59 SW6       30.03R
KANKAKEE*      CLEAR     72  66  83 SW3       30.05S
WHEELING       CLEAR     78  57  48 W6        30.03S
MORRIS*        MOCLDY    73  63  71 S3        30.04S
ROMEOVILLE*    CLEAR     73  60  63 W6        30.04S
NORTHERLY ISL    N/A     79  54  41 SW7         N/A
$$

LMZ740>746-010200-
SOUTHERN LAKE MICHIGAN

STATION/POSITION SKY/WX   TEMP    WIND        PRES    VSBY  WAVE
                          AIR SEA DIR/SP/G                  HT/PER
                          (F)     (DEG/KT/KT) (MB)    (MI)  (FT/S)
SOUTHERN BUOY              66 63  190/ 10/ 10 1015.7F         0
WAUKEGAN HARBOR            78     240/  8/ 10   N/A
HARRISON CRIB              78     260/ 12/ 15   N/A
BURNHAM HARBOR             79     280/  5/ 12   N/A
CALUMET HARBOR             79     230/  7/  9 1015.5S
MICHIGAN CITY              75     200/  5/  6   N/A
MICHIGAN CITY 6N           72 71  230/  4/  6   N/A           1
ST. JOSEPH                 72 69  170/  6/  8   N/A           0
$$

ILZ025>027-034>036-040-047-049-050-058-095>099-010200-
WEST-CENTRAL ILLINOIS

CITY           SKY/WX    TMP DP  RH WIND       PRES   REMARKS
QUINCY         CLEAR     76  61  59 CALM      30.05S
GALESBURG*     CLEAR     74  65  74 CALM      30.05S
MACOMB*        CLEAR     73  67  82 CALM      30.07S
JACKSONVILLE*  CLEAR     75  67  77 CALM      30.06S
PITTSFIELD*    CLEAR     75  66  74 CALM      30.06S
$$

ILZ028>032-037-038-041>044-048-051>054-059>061-010200-
CENTRAL ILLINOIS

CITY           SKY/WX    TMP DP  RH WIND       PRES   REMARKS
PONTIAC        CLEAR     73  64  73 SW3       30.05S
DECATUR        CLEAR     75  63  66 SE3       30.06S
PEORIA         CLEAR     76  61  59 CALM      30.05S
LACON*         CLEAR     73  64  73 CALM      30.03S
LINCOLN*       CLEAR     75  62  64 CALM      30.02S
SPRINGFIELD    PTCLDY    77  65  66 NE3       30.05S
TAYLORVILLE    CLEAR     73  63  68 CALM      30.05S
$$

ILZ033-039-045-046-055>057-062-063-010200-
EAST-CENTRAL ILLINOIS

CITY           SKY/WX    TMP DP  RH WIND       PRES   REMARKS
CHAMPAIGN      CLEAR     73  64  73 CALM      30.06S
DANVILLE*      CLEAR     70  64  82 CALM      30.04S HAZE
RANTOUL*       CLEAR     75  62  64 CALM      30.07S
MATTOON        CLEAR     73  64  73 CALM      30.06R
PARIS*         CLEAR     69  66  89 CALM      30.07S
$$

ILZ079-100>102-010200-
SOUTHWEST ILLINOIS

CITY           SKY/WX    TMP DP  RH WIND       PRES   REMARKS
ALTON          PTCLDY    75  64  69 VRB3      30.05S
BELLEVILLE     PTCLDY    77  67  71 CALM      30.03S
CAHOKIA*       MOCLDY    77  63  61 CALM      30.04R
SPARTA*        PTCLDY    73  64  73 SE5       30.06R
$$

ILZ064>066-069>071-074>076-080>082-084>086-088>090-092>094-010200-
SOUTH-CENTRAL ILLINOIS

CITY           SKY/WX    TMP DP  RH WIND       PRES   REMARKS
CARBONDALE     PTCLDY    74  64  71 SW6       30.05S
CAIRO*         PTCLDY    75  64  67 SW3       30.06S
EFFINGHAM*     LGT RAIN  75  60  58 SE3       30.05S
MARION         PTCLDY    75  66  73 S3        30.06S
MT. VERNON     PTCLDY    73  61  64 CALM      30.06S
CENTRALIA*     PTCLDY    74  62  65 CALM      30.05S
SALEM*         CLEAR     76  64  66 CALM      30.06R
METROPOLIS*    PTCLDY    72  62  69 CALM      30.05F
$$

ILZ067-068-072-073-078-083-087-091-010200-
SOUTHEAST ILLINOIS

CITY           SKY/WX    TMP DP  RH WIND       PRES   REMARKS
LAWRENCEVILLE  PTCLDY    76  67  73 CALM      30.06S
FLORA*         CLEAR     75  67  74 SE3       30.05S
FAIRFIELD*     PTCLDY    73  66  78 CALM      30.05S
HARRISBURG*    PTCLDY    74  67  77 S5        30.07R
ROBINSON*      CLEAR     73  67  81 CALM      30.06S
CARMI*         CLEAR     72  72 100 CALM      30.05S
$$

ABBREVIATIONS USED IN REMARKS
   TC - TEMPERATURE IN CELSIUS
  WCI - WIND CHILL INDEX
   HX - HEAT INDEX
  VSB - VISIBILITY
$$




USA.gov is the U.S. government's official web portal to all federal, state and local government web resources and services.